Location: Tamazert
(32.6352°N, 5.2072°W)
Time: 04:26:50
(UTC+00:00)

Vanguard 2 Rocket - Pass Details

Date: 05 October 2022
Orbit: 555 x 3321 km, 32.9° (Epoch: 05 December)

Event Time Altitude Azimuth Distance (km) Brightness Sun altitude
Rises 04:27:48 0° 281° (W) 4,250 - -23.8°
Reaches altitude 10° 04:31:45 10° 269° (W) 2,831 - -23.0°
Maximum altitude 04:36:47 25° 217° (SW) 1,536 - -22.0°
Exits shadow 04:37:54 23° 196° (SSW) 1,527 7.8 -21.7°
Drops below altitude 10° 04:40:29 10° 161° (SSE) 2,018 8.8 -21.2°
Sets 04:42:48 0° 146° (SE) 2,792 9.8 -20.7°
